Regional Weather Roundup
Issued by NWS

Home | Current Version | Previous Version | Graphics & Text | Print | Product List | Glossary On
Versions: 1 2 3 4 5 6 7 8 9 10 11 12 13 14 15 16 17 18 19 20 21 22 23 24 25 26 27 28 29 30 31 32 33 34 35 36 37 38 39 40 41 42 43 44 45 46 47 48 49 50
000
ASUS45 KBOU 271307
RWRCO

WEATHER ROUNDUP FOR COLORADO
NATIONAL WEATHER SERVICE DENVER/BOULDER CO
700 AM MDT THU AUG 27 2015

NOTE: "FAIR" INDICATES FEW OR NO CLOUDS BELOW 12000 FEET WITH NO
SIGNIFICANT WEATHER AND/OR OBSTRUCTIONS TO VISIBILITY.

COZ001>005-013-030-031-271400-
...NORTHWEST COLORADO...

CITY           SKY/WX    TMP DP  RH WIND       PRES   REMARKS
CRAIG          CLOUDY    59  57  93 CALM      30.31R
HAYDEN         NOT AVBL
MEEKER         CLOUDY    59  57  93 CALM      30.31R
MOUNT WERNER   NOT AVBL
STEAMBOAT SPGS CLOUDY    55  55  97 CALM      30.34R
WALDEN         CLOUDY    52  50  93 CALM      30.38S
$$

COZ006>008-011-271400-
...WEST CENTRAL VALLEYS...

CITY           SKY/WX    TMP DP  RH WIND       PRES   REMARKS
GRAND JUNCTION LGT RAIN  62  61  96 SE8       30.26R
MONTROSE       CLOUDY    60  58  92 SE6       30.34R
EAGLE          CLOUDY    57  55  94 CALM      30.36R
RIFLE          CLOUDY    61  59  93 CALM      30.29R
DELTA          RAIN      63  61  94 N5        30.30R
NUCLA          CLOUDY    63  54  72 CALM      30.37S
$$

COZ017>023-064>068-271400-
...SOUTHWEST COLORADO...

CITY           SKY/WX    TMP DP  RH WIND       PRES   REMARKS
DURANGO        CLOUDY    57  55  93 N3        30.40R
CORTEZ         LGT RAIN  58  58 100 CALM      30.35R FOG
PAGOSA SPRINGS CLOUDY    55  54  97 CALM      30.46S
TELLURIDE      LGT RAIN  53  50  89 CALM      30.53R
WOLF CREEK PAS FOG       39  39 100 SW18G24   30.69S VSB 1/4
$$

COZ009-010-012-014-032>034-037-058>063-271400-
...CENTRAL COLORADO...

CITY           SKY/WX    TMP DP  RH WIND       PRES   REMARKS
ASPEN          CLOUDY    54  52  93 SW5       30.39R
BUENA VISTA    MOCLDY    50  46  85 SW7       30.38S
COPPER MTN     CLOUDY    46  39  76 SW9G18    30.64R
BERTHOUD PASS  HAZE      37  28  70 NW21G35   30.64R VSB<1/4
COTTONWOOD PAS MOCLDY    55  45  67 NW6       30.49R
GUNNISON       MOCLDY    52  48  87 SE3       30.44S
KREMMLING      LGT RAIN  54  50  87 CALM      30.38R
LEADVILLE      CLOUDY    50  44  80 NE5       30.48S
MONARCH PASS   SNOW      43  41  93 W33       30.72S VSB<1/4
SALIDA         MOCLDY    61  50  67 SW8G18    30.43R
SUNLIGHT       LGT RAIN  50  48  93 CALM      30.59R
WILKERSON PASS CLOUDY    45  41  87 W8        30.60R
$$

COZ069>075-271400-
...SAN LUIS VALLEY/SANGRE DE CRISTO MOUNTAINS...

CITY           SKY/WX    TMP DP  RH WIND       PRES   REMARKS
ALAMOSA        FOG       47  46  97 S5        30.40S VSB 1/4
LA VETA PASS   CLOUDY    45  41  87 MISG      30.50R
SAGUACHE       NOT AVBL
$$

COZ035-036-038>040-271400-
...NORTHERN COLORADO FRONT RANGE...

CITY           SKY/WX    TMP DP  RH WIND       PRES   REMARKS
DENVER INTL AP MOCLDY    63  45  51 SE6       30.15R
DMNS CITY PARK   N/A     68  51  55 E10       30.15R
AURORA         MOCLDY    67  47  49 VRB2      30.17R
FRONT RANGE AP NOT AVBL
ERIE MUNI ARPT CLOUDY    62  51  66 S3        30.14R
BOULDER MUN AP LGT RAIN  70  54  56 W3        30.15R
CENTENNIAL     CLOUDY    68  46  45 W7        30.18R
BROOMFIELD     MOCLDY    73  46  38 N6        30.17R
FORT COLLINS   CLOUDY    64  52  63 SW3       30.15R
LONGMONT       CLOUDY    65  55  71 E3        30.15R
$$

COZ041-046-047-076>085-087-088-271400-
...PIKES PEAK/PALMER DIVIDE AND SOUTHERN FOOTHILLS...

CITY           SKY/WX    TMP DP  RH WIND       PRES   REMARKS
COLO. SPRINGS  LGT RAIN  67  47  48 CALM      30.22R
A. F. ACADEMY  CLOUDY    68  45  44 W10       30.23R
ELLICOTT       CLOUDY   N/A N/A N/A NE9       30.19S
FALCON         CLOUDY    64  45  49 W8        30.27R
FORT CARSON    CLOUDY    64  52  65 NW6       30.18R
LIMON          PTCLDY    61  47  59 SW6       30.14R
MONUMENT HILL  MOCLDY    59  45  58 W8        30.28R
TRINIDAD       CLOUDY    67  48  50 NW8       30.20R
$$

COZ042>045-048>051-090-091-271400-
...NORTHEAST COLORADO...

CITY           SKY/WX    TMP DP  RH WIND       PRES   REMARKS
GREELEY ARPT   CLOUDY    70  52  52 NW12      30.11R
AKRON          CLEAR     63  47  55 W14       30.06R
BURLINGTON     MOCLDY    68  49  50 SW12      30.03R
WRAY           CLOUDY    66  51  58 SW8       29.96S
STERLING       CLEAR     59  50  72 SW6       30.01S
HOLYOKE        CLOUDY    63  54  72 CALM      29.96F
FORT MORGAN    CLEAR     62  48  60 CALM      30.08R
$$

COZ086-089-092>099-271400-
...SOUTHEAST COLORADO...

CITY           SKY/WX    TMP DP  RH WIND       PRES   REMARKS
PUEBLO         CLOUDY    73  49  42 W6        30.10R
LA JUNTA       CLOUDY    75  50  41 SW10      30.07S
LAMAR          CLOUDY    72  52  49 SW9       30.03R
SPRINGFIELD      N/A     69  53  56 SW9       30.11F
$$




USA.gov is the U.S. government's official web portal to all federal, state and local government web resources and services.